User: anonymous   Login
Location: Nairn
(57.5833°N, 3.8667°W)
Time: 11:47:06
(UTC+00:00)
Language:

N. Korean satellite - Orbit

View from above orbital plane
View from above orbital plane
View from above satellite
View from above satellite

Ground track
Ground track

The orbit data is extracted from the following two-line orbital elements,

1 39026U 12072A   22275.87058469  .00029142  00000-0  72638-3 0  9994
2 39026  97.2766 265.6202 0030408 129.2220 231.1733 15.39690325545439
Epoch (UTC): 02 October 2022 20:53:38
Eccentricity: 0.0030408
inclination: 97.2766°
perigee height: 426 km
apogee height: 468 km
right ascension of ascending node: 265.6202°
argument of perigee: 129.2220°
revolutions per day: 15.39690325
mean anomaly at epoch: 231.1733°
orbit number at epoch: 54543

The dashed part of the orbit path shows where the satellite is in the earth's shadow,  

DLR